Regional Weather Roundup
Issued by NWS

Home | Current Version | Previous Version | Graphics & Text | Print | Product List | Glossary On
Versions: 1 2 3 4 5 6 7 8 9 10 11 12 13 14 15 16 17 18 19 20 21 22 23 24 25 26 27 28 29 30 31 32 33 34 35 36 37 38 39 40 41 42 43 44 45 46 47 48 49 50
000
ASUS45 KTFX 201519
RWRMT
MONTANA HOURLY WEATHER ROUNDUP
NATIONAL WEATHER SERVICE GREAT FALLS MT
919 AM MDT WED AUG 20 2014

NOTE: "FAIR" INDICATES FEW OR NO CLOUDS BELOW 12000 FEET WITH NO
SIGNIFICANT WEATHER AND/OR OBSTRUCTIONS TO VISIBILITY.

* THESE STATIONS ARE NOT UNDER NWS QUALITY CONTROL. THEY DO NOT
   REPORT WEATHER SUCH AS PRECIPITATION OR FOG.

MTZ001>007-043-201600-
WEST OF THE DIVIDE
CITY           SKY/WX    TMP DP  RH WIND       PRES   REMARKS
KALISPELL      LGT RAIN  61  55  81 SE7       29.85F
MISSOULA       CLOUDY    57  54  90 CALM      29.90R
BUTTE          PTCLDY    55  45  69 CALM      29.97R
MULLAN PASS    LGT RAIN  50  48  93 S6        29.96R
* ESSEX        N/A       53  51  93 NE2        N/A
* LINCOLN      N/A       52  45  77 N1         N/A
* LOOKOUT PASS N/A       52  52 100 SE2        N/A
* POLSON       N/A       56  55  96 SW2        N/A
* RONAN APT    CLOUDY    57  55  93 W5         N/A
* SEELEY LAKE  N/A       51  50  96 SE3        N/A
* THOMP F APT  PTSUNNY   51  48  90 N/A        N/A
* YAAK HILL    N/A       57  54  90 SE2        N/A
$$

MTZ008-052>055-201600-
SOUTHWEST MONTANA
CITY           SKY/WX    TMP DP  RH WIND       PRES   REMARKS
BOZEMAN        PTSUNNY   57  48  72 S6        29.92R
DILLON         PTCLDY    57  48  72 W6        29.95R
W YELLOWSTONE  CLOUDY    46  46 100 CALM      30.08R
* THREE FORKS  PTSUNNY   61  61 100 N/A        N/A
* BOULDER HILL N/A       62  41  46 S4         N/A
* RAYNOLDS PAS N/A       49  30  48 SE4        N/A
* WHITEHALL    N/A       56  49  77 N3         N/A
* WISE RIVER   N/A       46  40  80 NE3        N/A
$$

MTZ009>010-012-014-046-048-049-054-201600-
EAST SLOPES AND CENTRAL MONTANA
CITY           SKY/WX    TMP DP  RH WIND       PRES   REMARKS
CUT BANK       PTCLDY    63  52  68 N7        29.84S
GREAT FALLS    PTSUNNY   64  52  65 SW3       29.83R
HELENA         PTSUNNY   66  46  49 CALM      29.87F
MALMSTROM AFB  PTSUNNY   64  50  61 S6        29.85R
* CONRAD       PTCLDY    63  57  81 NW8        N/A
* DEARBORN     N/A       64  48  56 SW1        N/A
* EAST GLACIER N/A       56  47  72 W19G25     N/A
* MONARCH      N/A       57  41  55 S6         N/A
* PENDROY      N/A       65  47  52 NW6        N/A
* ROGERS PASS  N/A       56  43  62 E6G11      N/A
* SAINT MARY   N/A       62  45  54 S4G15      N/A
* SWEET GRASS  N/A       57  57 100 N8         N/A
* WHITE SULPH  N/A       61  50  67 SW2        N/A
$$

MTZ011-013-016-021-035-040-045-047-050-051-201600-
NORTH CENTRAL MONTANA
CITY           SKY/WX    TMP DP  RH WIND       PRES   REMARKS
HAVRE          CLOUDY    61  55  81 W5        29.81R
LEWISTOWN      CLOUDY    66  46  49 W6        29.87R
* CHINOOK      CLOUDY    63  55  75 W7        29.80R
* FORT BENTON  PTSUNNY   63  54  73 CALM      29.83R
* CHESTER      N/A       65  54  68 SE1        N/A
* DENTON       N/A       65  47  52 N1         N/A
* GEYSER       N/A       68  47  47 W9         N/A
* JUDITH GAP   N/A       63  48  58 NW5        N/A
* LOMA         N/A       59  52  78 NW3        N/A
$$

MTZ017>020-022>027-061-062-201600-
NORTHEAST MONTANA
CITY           SKY/WX    TMP DP  RH WIND       PRES   REMARKS
GLASGOW        PTSUNNY   72  61  68 NW14      29.68R
GLENDIVE       CLOUDY    72  57  59 S13       29.70R
JORDAN         CLOUDY    70  55  59 W9        29.71R
SIDNEY         CLOUDY    72  64  76 E6        29.66S
WOLF POINT     CLOUDY    72  55  55 S8        29.65R
* BEAVER HILL  N/A       77  54  45 SW11       N/A
* CIRCLE       N/A       70  56  61 SW4        N/A
* LINDSAY DVD  N/A       70  51  51 SW8        N/A
* SACO         N/A       62  58  87 W14        N/A
$$

MTZ028>042-056>058-201600-
SOUTHCENTRAL AND SOUTHEAST MONTANA
CITY           SKY/WX    TMP DP  RH WIND       PRES   REMARKS
BAKER          CLOUDY    72  61  68 W9        29.71S
BILLINGS       CLOUDY    70  45  41 SW10      29.84R
LIVINGSTON     PTSUNNY   66  43  43 W10       29.89R
MILES CITY     LGT RAIN  64  54  70 NW17      29.72S
* LAUREL APT   CLOUDY    68  48  49 N/A        N/A
* ROUNDUP APT  CLOUDY    68  45  44 N/A        N/A
* ALZADA       N/A       76  53  45 S4         N/A
* HYSHAM       N/A       70  44  39 NW9        N/A
* LAME DEER    N/A       64  48  56 NW6G12     N/A
* REED POINT   N/A       67  50  55 E6         N/A
* ROSCOE HILL  N/A       65  40  40 E2         N/A
$$

REGIONAL REPORTS...DAKOTAS
CITY           SKY/WX    TMP DP  RH WIND       PRES   REMARKS
WILLISTON      CLOUDY    70  64  81 SE7       29.63F
DICKINSON      CLOUDY    72  63  73 S10       29.68R
BEACH          N/A       73  55  53 W9        29.68R
CROSBY         SUNNY     68  66  93 SE10G17   29.68R
TIOGA          TSTM      64  64 100 E12       29.73R
WATFORD CITY   SUNNY     70  63  79 E3        29.64R
BISMARCK       CLOUDY    73  64  74 S9        29.72S
GRAND FORKS    PTCLDY    73  64  74 SE10      29.78S
FARGO          SUNNY     75  64  69 SE14      29.78F
BUFFALO SD     PTSUNNY   75  63  66 E6        29.66R
RAPID CITY     CLOUDY    70  63  79 CALM      29.73F
$$

REGIONAL REPORTS...WYOMING/IDAHO/WASHINGTON
CITY           SKY/WX    TMP DP  RH WIND       PRES   REMARKS
GILLETTE       PTSUNNY   73  45  37 NW15      29.81R
SHERIDAN       CLOUDY    72  46  40 NW17G24   29.83R
CODY           PTSUNNY   66  46  49 NE6       29.93R
YELLOWSTONE LA PTSUNNY   52  45  77 CALM      30.14S
SALMON         SUNNY     57  48  72 CALM      29.93S
MULLAN PASS    LGT RAIN  50  48  93 S6        29.96S
SAND POINT     PTCLDY    61  57  87 CALM      29.82R
SPOKANE        CLOUDY    66  54  65 SW18      29.79R
$$

REGIONAL REPORTS...ALBERTA
CITY           SKY/WX    TMP DP  RH WIND       PRES   REMARKS
CALGARY        PTSUNNY   54  46  74 N16       29.89R
LETHBRIDGE     PTSUNNY   57  55  93 W6        29.84R
MEDICINE HAT   CLOUDY    61  57  87 SW6       29.80R
EDMONTON       PTSUNNY   54  52  93 W8        29.87R
WATERTON GATE  N/A       54  50  86 NE1        N/A
CARDSTON       N/A       55  54  96 NW3        N/A
$$

REGIONAL REPORTS...SASKATCHEWAN
CITY           SKY/WX    TMP DP  RH WIND       PRES   REMARKS
SWIFT CURRENT  CLOUDY    64  59  84 NW10      29.73S
MOOSE JAW      PTSUNNY   64  61  90 NW16G22   29.67R
REGINA         PTSUNNY   64  61  90 CALM      29.63S
VAL MARIE      N/A       63  57  81 N13        N/A
CORONACH       N/A       66  61  84 NW8        N/A

$$



USA.gov is the U.S. government's official web portal to all federal, state and local government web resources and services.